Volver al catálogo

STARLINK-5562

ActivoComunicacionesSSO
NORAD 56336·PAYLOAD·🇺🇸 United States

Lanzado Apr 27, 2023 desde Vandenberg Space Force Base

Loading…

Próximos Pases (próximas 24 horas)

TLE

ActualizadoSource: CelesTrak SupGP

Época: Sep 15, 2026, 02:47 UTC

1 56336C 23058V   26258.11645833  .00529150  00000+0  31981-1 0  2587
2 56336  97.2848 252.2388 0001365  89.2565 112.6945 15.10496426    10

Sigue STARLINK-5562 en tiempo real con AllMySat

Download on the App Store